#timestamp,LO_Frequency,Hit 
1503626415.9,286047033.8,N
1503626435.7,286046999.3,N
1503626455.5,286047013.4,N
1503626475.3,286047015.5,N
1503626495.2,286047012.0,N
1503626515.0,286047011.8,N
1503626515.9,286047011.8,N
1503626535.7,286047013.2,N
1503626555.6,286047023.2,N
1503626575.4,286047017.2,N
1503626595.2,286047016.4,N
1503626615.1,286047016.9,N
1503626616.0,286047016.9,N
1503626635.8,286047015.7,N
1503626655.6,286047015.9,N
1503626675.5,286047019.4,N
1503626695.3,286047017.4,N
1503626715.1,286047017.9,N
1503626735.8,286047017.5,N
1503626755.7,286047020.3,N
1503626775.5,286047017.6,N
1503626795.3,286047017.6,N
1503626815.2,286047021.9,N
1503626835.9,286047547.9,P
1503626855.7,286047013.1,N
1503626875.6,286046470.6,N
1503626895.4,286044975.3,P
1503626915.2,286046460.5,N
1503626935.1,286046465.2,N
1503626936.0,286046465.2,N
1503626955.8,286046463.9,N
1503626975.6,286046464.9,N
1503626995.5,286046463.7,N
1503627015.3,286047624.2,N
1503627035.1,286046507.3,N
1503627055.9,286046467.0,N
1503627075.7,286047025.0,N
1503627095.5,286046975.8,N
1503627115.4,286046502.6,N
1503627135.2,286046499.8,N
1503627155.0,286046498.4,N
1503627155.9,286046498.4,N
1503627175.8,286044956.8,P
1503627195.6,286047594.7,N
1503627215.4,286047594.1,N
1503627235.3,286047466.8,N
1503627255.1,286047465.0,N
1503627256.0,286047465.0,N
1503627275.8,286047464.3,N
1503627295.7,286047464.8,N
1503627315.5,286047464.5,N
1503627335.3,286047464.8,N
1503627355.2,286047464.0,N
1503627375.9,286046258.7,N
1503627395.7,286048010.7,N
1503627415.5,286047926.6,N
1503627435.4,286048012.8,N
1503627455.2,286048120.6,N
1503627475.0,286048281.5,N
1503627475.9,286048281.5,N
1503627495.8,286048525.9,N
1503627515.6,286048157.5,N
1503627535.4,286048277.5,N
1503627555.3,286047681.9,N
1503627575.1,286046456.2,N
1503627576.0,286046456.2,N
1503627595.8,286048380.1,N
1503627615.7,286048275.8,N
1503627635.5,286048960.7,N
1503627655.3,286048841.1,N
1503627675.2,286048836.7,N
1503627695.9,286049044.8,N
1503627715.7,286048971.5,N
1503627735.5,286048973.6,N
1503627755.4,286048973.2,N
1503627775.2,286048975.2,N
1503627795.0,286048975.6,N
1503627795.9,286048975.6,N
1503627815.8,286049795.5,P
1503627835.6,286047753.7,N
1503627855.4,286047844.1,N
1503627875.3,286047843.7,N
1503627895.1,286046112.5,N
1503627915.8,286047844.1,N
1503627935.7,286047843.8,N
1503627955.5,286047843.1,N
1503627975.3,286047845.6,N
1503627995.2,286047843.2,N
1503628015.9,286046694.7,N
1503628035.7,286047843.0,N
1503628055.6,286046640.2,N
1503628075.4,286046415.4,N
1503628095.2,286046452.8,N
1503628115.0,286046455.5,N
1503628116.0,286046455.5,N
1503628135.8,286046448.4,N
1503628155.6,286046448.3,N
1503628175.4,286046448.0,N
1503628195.3,286046547.5,N
1503628215.1,286046545.3,N
1503628235.8,286046548.3,N
1503628255.7,286046545.9,N
1503628275.5,286046548.0,N
1503628295.3,286046545.7,N
1503628315.2,286046548.2,N
1503628335.9,286046324.5,N
1503628355.7,286046323.5,N
1503628375.6,286046315.8,N
1503628395.4,286046296.1,N
1503628415.2,286046319.2,N
1503628435.0,286045925.3,N
1503628436.0,286045925.3,N
1503628455.8,286045873.9,N
1503628475.6,286046075.9,N
1503628495.5,286045068.6,P
1503628515.3,286046300.7,N
1503628535.1,286046302.5,N
1503628555.9,286046673.7,N
1503628575.7,286045830.0,N
1503628595.5,286046307.9,N
1503628615.3,286046672.7,N
1503628635.2,286046308.7,N
1503628655.0,286046310.1,N
1503628655.9,286046310.1,N
1503628675.7,286046314.6,N
1503628695.6,286046662.0,N
1503628715.4,286046661.8,N
1503628735.2,286046316.6,N
1503628755.1,286046052.3,N
1503628756.0,286046052.3,N
1503628775.8,286046320.0,N
1503628795.6,286046322.1,N
1503628815.5,286046323.7,N
1503628835.3,286046660.7,N
1503628855.1,286045889.4,P
1503628875.9,286046360.9,P
1503628895.7,286046895.2,N
1503628915.5,286047025.5,N
1503628935.4,286047029.8,N
1503628955.2,286047029.4,N
1503628975.0,286047230.8,N
1503628975.9,286047230.8,N
1503628995.8,286047082.4,N
1503629015.6,286047082.5,N
1503629035.4,286045851.1,N
1503629055.2,286047034.9,N
1503629075.1,286047318.9,N
1503629076.0,286047318.9,N
1503629095.8,286047093.6,N
1503629115.6,286047040.1,N
1503629135.5,286047117.7,N
1503629155.3,286047046.0,N
1503629175.1,286047177.9,N
1503629195.9,286047934.9,N
1503629215.7,286047619.9,N
1503629235.5,286047049.9,N
1503629255.4,286047051.9,N
1503629275.2,286047616.4,N
1503629295.0,286047091.5,N
1503629295.9,286047091.5,N
1503629315.8,286046927.1,N
1503629335.6,286047350.8,N
1503629355.4,286047350.3,N
1503629375.2,286047350.3,N
1503629395.1,286047350.6,N
1503629396.0,286047350.6,N
1503629415.8,286047352.3,N
1503629435.6,286047354.3,N
1503629455.5,286047793.7,N
1503629475.3,286047791.8,N
1503629495.1,286047794.1,N
1503629515.9,286047793.9,N
1503629535.7,286047794.0,N
1503629555.5,286047787.1,N
1503629575.4,286047376.2,N
1503629595.2,286047237.0,N
1503629615.0,286047237.0,N
1503629615.9,286047237.0,N
1503629635.8,286047237.0,N
1503629655.6,286047236.6,N
1503629675.4,286047239.4,N
1503629695.3,286047239.0,N
1503629715.1,286047238.8,N
1503629716.0,286047238.8,N
1503629735.8,286047238.6,N
1503629755.7,286047238.2,N
1503629775.5,286047238.6,N
1503629795.3,286047238.1,N
1503629815.1,286047240.9,N
1503629835.9,286047241.0,N
1503629855.7,286047241.0,N
1503629875.6,286047767.4,P
1503629895.4,286047387.4,N
1503629915.2,286047387.6,N
1503629935.0,286047390.0,N
1503629935.9,286047390.0,N
1503629955.8,286046819.9,N
1503629975.6,286046973.3,N
1503629995.4,286046974.7,N
